Wind_Speed
3 2 2 4 6 7 7 7 8 7 7 7 3 2 3 2 5 8 9 8 6 9 6 9 7 5 6 3 6 5 4 7 11 10 9 10 9 10 10 10 10 9 8 7 12 18 22 21 17 18 25 30 34 35 35 34 32 31 29 26 24 23 23 23 23 22 21 20 20 20 19 17 16 16 15 13 12 10 8 7 5 4 3 4 5 5
3 3 6 9 10 10 9 8 7 6 6 5 1 1 4 1 4 9 6 6 3 7 0 2 7 3 6 3 4 8 5 6 12 12 11 12 11 10 11 12 11 8 5 5 7 13 18 16 16 21 26 30 33 33 33 32 29 27 24 23 24 25 24 23 22 22 22 20 21 24 23 21 18 16 14 13 12 10 9 8 5 3 1 2 3 3
1 4 10 13 10 6 6 5 5 5 4 1 1 1 4 3 4 8 6 7 6 5 1 1 5 5 6 4 4 11 12 11 12 15 15 15 12 10 10 11 10 8 5 6 7 10 14 13 16 23 25 28 32 31 31 30 27 25 23 23 26 26 25 23 22 22 21 20 20 23 25 24 21 18 16 15 13 11 10 8 6 5 3 2 3 4
2 7 12 12 6 4 4 5 4 2 1 0 0 1 3 2 1 4 6 7 5 3 2 2 2 3 4 3 3 7 10 9 9 11 12 13 14 13 13 12 12 12 9 10 9 9 11 13 18 23 23 27 30 30 30 29 27 26 24 25 27 27 25 24 24 22 20 20 21 24 26 25 22 20 19 17 15 12 11 9 7 5 5 4 3 4
7 10 7 5 5 8 5 5 4 3 2 3 2 3 3 2 2 5 6 7 6 4 3 5 4 4 3 3 2 4 2 7 7 8 7 9 11 11 12 13 14 14 13 13 12 10 10 14 18 22 24 26 28 29 31 30 28 27 25 26 27 27 25 25 24 22 19 21 24 26 25 22 21 20 19 18 16 14 12 11 9 7 7 7 6 6
10 12 6 4 5 8 6 5 3 4 1 4 3 6 6 5 5 6 5 5 5 5 2 4 3 5 5 3 3 3 2 7 6 9 12 11 7 7 9 11 12 12 12 13 14 12 11 13 17 20 24 25 26 28 31 30 28 27 26 26 27 27 26 24 23 22 21 22 26 27 25 22 21 19 17 17 17 16 15 13 11 10 10 11 10 8
7 9 6 5 5 7 6 4 4 5 5 2 4 6 6 6 4 5 4 1 3 2 4 3 4 4 6 5 5 2 4 8 7 8 10 9 7 8 9 10 11 10 10 10 10 11 12 14 16 18 23 26 27 29 31 31 29 29 28 26 28 28 25 23 22 23 24 25 26 26 23 22 21 19 17 17 18 18 16 15 13 13 13 12 10 9
4 3 4 6 5 6 5 4 5 6 8 3 6 6 5 4 4 3 3 2 2 3 4 4 5 2 4 5 6 2 3 5 10 9 8 9 10 10 10 10 11 11 11 10 10 11 11 14 16 19 24 27 29 30 31 32 31 31 30 28 28 27 24 23 23 25 26 26 27 25 22 20 19 19 19 18 18 17 17 15 14 13 13 12 10 10
3 1 5 6 3 3 4 5 7 6 5 7 7 5 4 4 6 5 6 3 1 1 4 6 3 3 4 6 5 4 3 1 8 11 9 11 13 13 12 12 11 12 12 12 12 11 11 14 19 22 25 26 29 32 34 34 34 33 31 30 29 27 25 26 25 26 26 25 26 24 22 21 20 20 20 20 18 18 17 16 14 13 12 12 11 10
4 6 9 6 4 4 6 6 6 7 4 7 3 3 4 1 3 4 5 3 3 4 3 6 1 2 4 5 5 4 2 3 6 5 5 9 14 14 12 11 10 9 9 10 10 10 12 16 19 21 23 26 29 33 34 34 34 34 33 33 31 27 27 28 27 26 26 24 24 24 25 24 23 23 22 21 20 19 18 17 15 13 12 12 12 11
5 5 5 5 5 6 5 4 4 7 6 4 1 2 3 4 4 4 3 4 4 2 5 6 1 4 1 5 4 2 1 4 2 2 2 5 11 11 9 9 8 7 6 7 7 6 7 11 13 15 18 22 26 28 29 30 32 33 33 34 32 28 29 30 28 28 27 24 23 25 27 27 27 27 25 23 22 21 20 18 17 15 14 13 14 13
6 2 3 3 4 5 4 0 2 1 2 2 2 2 2 4 5 5 4 4 3 2 6 6 1 6 1 4 5 4 4 6 2 6 3 5 10 8 7 7 6 6 6 6 6 6 7 8 10 13 15 18 22 23 24 27 30 31 33 33 30 26 28 30 28 28 28 25 24 26 28 29 29 29 27 26 25 23 22 20 18 18 17 15 15 14
5 3 4 4 2 4 5 1 5 5 5 5 3 4 4 1 4 3 4 2 1 3 4 5 1 3 2 6 6 6 7 7 2 7 6 8 11 8 8 8 7 7 7 7 7 6 6 6 9 14 16 18 21 22 23 25 26 27 28 29 28 23 26 31 29 28 28 25 26 28 28 29 30 29 27 27 26 24 23 21 21 20 19 17 16 15
3 5 4 3 3 2 6 3 2 3 2 4 4 3 4 3 3 1 3 1 1 4 4 4 1 0 4 4 6 6 7 4 3 6 6 10 11 9 9 9 8 7 7 7 7 7 6 5 8 13 17 19 20 20 20 19 19 21 22 24 25 22 26 31 28 26 25 26 28 27 26 29 30 29 27 27 27 25 23 22 22 22 20 18 17 16
1 4 3 2 2 2 5 5 6 4 1 3 5 5 4 4 4 3 3 2 3 3 4 4 1 2 2 4 6 4 4 2 9 7 7 10 10 9 9 8 8 8 7 7 6 7 6 7 9 10 13 17 18 18 18 17 18 20 21 21 21 19 19 22 22 21 22 26 28 25 26 29 29 28 27 27 27 25 23 23 23 21 20 19 18 17
3 3 6 4 3 5 5 4 5 6 1 3 2 5 1 4 5 2 2 5 4 0 2 2 1 3 4 5 5 2 3 6 11 9 11 12 9 10 9 8 8 7 6 7 7 7 6 8 11 11 11 14 17 19 20 21 22 22 22 23 22 20 22 27 29 27 26 29 28 25 26 29 28 28 27 27 28 25 23 23 23 21 20 19 19 18
2 4 7 4 2 2 4 5 5 5 2 2 2 1 4 4 7 4 1 1 4 3 2 2 1 4 3 3 5 6 4 6 11 10 11 11 10 11 9 7 8 7 7 7 7 7 6 8 10 10 13 17 20 21 22 24 26 27 27 28 28 26 27 33 35 34 32 31 28 25 26 29 28 28 28 28 29 27 24 24 22 21 21 20 19 19
4 2 6 4 4 5 4 1 1 3 5 3 1 3 1 3 4 4 1 2 4 2 4 2 2 3 3 2 5 7 4 2 7 9 9 10 10 11 9 8 8 8 8 7 7 8 7 9 11 12 14 18 22 23 24 25 26 28 29 31 32 29 27 30 32 33 32 31 29 27 27 28 29 30 31 29 29 28 27 26 24 23 23 22 20 20
4 0 6 3 3 6 6 5 4 5 2 4 4 3 3 3 1 1 2 1 1 1 3 2 1 1 1 1 5 6 4 3 1 5 7 9 10 10 9 9 9 9 8 8 8 8 7 9 13 14 14 16 20 23 24 25 24 25 27 30 31 30 28 28 29 31 31 31 32 30 28 28 29 31 33 31 29 30 30 29 27 25 24 23 22 20
3 3 4 5 2 3 5 5 3 5 6 3 1 2 2 3 3 2 2 3 3 2 3 2 3 1 2 2 5 6 5 3 3 3 4 5 5 6 7 7 7 8 8 8 8 8 8 11 14 15 14 15 17 19 22 22 20 20 24 26 27 26 27 28 28 30 31 32 33 32 30 29 28 31 35 34 31 31 32 32 31 28 26 25 24 22
3 4 2 5 5 3 1 2 2 2 4 4 3 3 2 1 2 1 1 2 3 4 2 1 2 4 4 2 4 5 2 3 6 5 5 4 4 4 5 6 6 7 7 7 8 8 8 11 14 14 14 14 14 15 17 17 15 15 18 20 22 23 26 27 28 30 32 33 34 33 33 32 29 30 36 36 33 33 33 33 33 30 28 27 26 24
2 2 3 1 4 2 2 3 3 3 2 1 1 2 1 3 3 3 1 2 1 4 3 4 2 4 5 3 5 4 2 6 8 8 6 4 5 5 4 5 6 6 7 7 8 8 8 10 13 14 14 15 13 12 13 13 13 14 16 18 19 21 23 26 28 31 32 32 31 30 30 29 26 29 36 38 34 33 34 35 35 32 30 29 27 25
3 3 3 1 2 3 5 3 3 4 2 4 3 2 2 2 3 5 3 3 1 1 1 4 3 4 5 4 4 1 2 4 6 8 7 4 3 4 4 4 5 6 7 7 8 7 9 12 14 15 15 15 13 12 12 11 12 15 17 19 18 19 22 25 26 25 24 24 24 22 22 22 19 21 32 38 37 35 36 35 35 34 33 31 29 27
2 4 3 1 3 4 5 2 4 7 6 5 3 3 4 2 1 4 5 3 3 1 1 3 1 3 4 5 4 3 6 6 6 6 8 6 4 4 5 4 5 6 6 7 7 7 9 13 14 14 14 14 13 13 12 12 12 13 15 18 18 17 19 18 16 13 12 14 17 16 16 18 17 14 16 23 29 33 36 36 35 33 33 33 31 29
1 2 3 3 3 6 7 5 6 6 5 2 2 3 4 4 4 2 1 3 3 1 3 5 2 3 3 4 2 4 8 9 7 7 8 7 6 5 5 5 4 5 6 6 6 6 7 9 10 11 12 13 14 14 15 15 14 13 13 15 16 16 16 15 15 14 11 10 13 15 14 15 18 16 12 11 14 18 25 31 33 34 34 34 33 31
2 2 3 4 2 1 1 1 2 3 3 2 3 5 5 5 6 3 2 4 2 0 2 5 4 4 3 3 5 6 7 8 7 7 7 6 6 5 5 4 3 3 5 6 6 6 6 6 8 11 12 12 13 14 15 16 16 15 15 15 16 17 18 18 19 20 17 12 9 11 14 13 13 15 18 19 18 17 18 22 24 28 32 33 33 32
4 2 3 6 6 5 4 4 3 1 3 3 5 6 5 4 4 4 4 2 2 2 2 1 4 2 5 7 7 6 4 5 5 5 6 5 4 4 5 5 4 4 4 5 5 5 5 6 7 10 12 12 12 13 14 15 15 16 16 16 16 17 17 18 19 20 19 15 9 10 14 15 12 11 13 18 21 22 23 21 16 16 20 25 28 30
5 2 1 5 4 4 5 2 2 3 3 3 5 6 5 4 5 6 5 2 4 4 2 5 2 6 5 7 7 7 5 5 5 4 4 4 3 3 3 5 4 4 4 6 6 5 6 6 6 9 12 13 13 13 12 13 13 13 15 15 14 14 15 16 18 19 19 18 15 13 14 15 13 10 8 11 17 19 19 20 18 15 16 18 20 23
5 1 2 3 3 1 2 3 5 5 4 5 6 6 5 3 5 6 2 2 4 6 3 2 6 7 2 6 6 5 6 6 6 6 5 5 4 4 5 6 5 4 2 3 6 7 7 6 6 9 13 14 15 15 14 13 12 12 13 13 13 12 12 13 14 15 16 17 15 12 11 12 13 11 10 12 15 16 15 17 20 20 21 21 20 22
4 1 1 4 4 4 4 5 7 8 6 6 8 7 5 4 6 6 3 3 7 7 5 6 10 7 3 5 5 5 5 5 6 7 8 8 7 7 8 6 5 5 4 1 1 3 7 8 7 10 13 14 16 16 16 15 13 11 11 12 13 13 12 12 13 13 14 13 12 15 18 16 14 16 18 15 14 16 18 21 21 21 22 23 25 26
3 1 1 4 4 4 4 6 8 7 7 7 9 10 8 7 8 6 4 4 7 6 4 8 10 6 5 5 5 6 5 6 8 9 8 7 7 8 8 7 7 6 4 3 4 5 2 4 7 10 13 14 15 16 17 16 15 13 12 11 11 12 13 14 15 15 14 14 14 15 17 17 16 18 18 13 10 11 13 15 16 17 18 19 20 20
3 2 1 5 4 3 3 5 6 6 8 9 9 11 10 7 6 5 5 6 4 5 5 8 7 3 6 5 5 7 8 10 11 9 8 7 7 8 8 7 7 7 6 6 8 9 8 6 4 5 9 13 16 18 18 17 15 14 13 11 10 10 11 13 14 14 14 15 16 17 17 16 16 16 14 11 9 9 9 10 10 11 11 11 11 11
3 3 1 3 3 3 3 4 5 5 6 4 4 6 6 3 7 8 9 10 7 4 5 5 3 1 5 4 6 9 10 11 10 8 7 7 7 8 8 8 9 8 9 10 10 10 9 9 11 12 9 6 10 16 19 17 16 14 12 10 9 8 8 8 10 10 11 12 12 14 16 16 14 14 13 10 9 8 8 8 7 7 7 7 7 8
2 5 2 2 4 2 5 3 6 4 2 3 5 4 1 7 13 12 8 9 9 6 5 4 3 1 4 5 6 6 7 9 8 8 8 7 7 8 8 8 8 8 9 10 9 8 9 12 15 18 17 14 7 7 14 15 15 15 12 9 8 6 4 4 5 6 5 6 7 9 12 13 12 12 11 10 9 8 7 6 5 5 6 7 7 8
3 5 2 2 4 2 2 6 5 1 4 5 2 2 4 10 15 15 10 8 9 7 6 6 4 5 5 5 4 2 4 7 8 9 9 8 8 8 8 8 8 7 8 8 7 8 11 14 18 20 21 20 18 11 6 7 9 10 8 8 8 6 3 3 4 4 4 5 7 8 9 9 10 11 11 9 9 8 7 6 5 5 5 5 5 5
5 4 3 2 3 2 1 4 2 4 3 2 1 2 3 5 7 10 10 8 7 5 5 5 5 6 5 5 5 3 1 3 7 8 8 7 8 7 7 7 8 7 6 7 8 10 10 12 15 17 18 19 21 20 16 11 6 5 4 5 8 8 5 4 6 7 6 7 9 9 8 9 10 11 10 8 7 7 6 6 5 5 5 5 5 5
7 4 3 2 2 3 4 2 2 1 1 2 3 2 1 0 1 3 5 3 4 4 3 4 5 6 6 5 5 4 3 2 6 7 6 6 6 6 7 7 7 9 8 9 12 12 9 8 9 10 11 14 18 21 21 19 15 10 8 6 4 3 3 2 3 5 8 10 11 11 11 11 12 12 10 8 7 6 5 5 4 4 5 5 6 6
5 4 4 4 2 3 5 2 1 2 4 3 4 5 2 2 4 4 6 2 4 5 3 3 4 6 6 6 6 6 4 5 5 5 6 5 5 5 7 8 10 11 10 10 13 14 13 10 6 5 6 8 12 15 17 19 19 16 12 8 5 4 5 6 5 4 2 4 9 11 14 16 15 14 13 11 9 8 6 6 6 6 6 6 6 5
6 2 4 4 2 3 5 4 3 4 4 5 5 7 7 5 1 5 6 2 4 5 4 3 6 6 6 6 6 5 6 5 3 4 5 6 5 5 6 6 9 11 11 11 13 16 18 15 8 5 6 7 10 10 10 13 14 14 15 14 9 7 7 6 6 7 6 5 2 2 8 14 17 16 14 13 12 10 9 8 8 8 7 7 6 6
7 4 4 4 3 3 5 3 2 2 2 3 5 7 8 5 3 6 3 3 3 5 5 4 7 6 5 5 5 5 6 3 4 5 5 5 5 7 8 8 9 11 12 14 16 18 19 18 14 11 10 9 11 10 8 9 10 10 13 15 12 11 12 10 7 5 4 3 4 4 0 6 11 13 13 12 12 10 9 9 10 10 9 8 7 7
4 3 2 4 3 2 4 3 1 1 1 3 5 7 7 4 6 5 3 4 1 4 4 5 6 5 4 5 5 3 1 3 5 5 6 5 4 6 8 10 13 15 15 16 17 18 19 20 19 18 17 16 16 14 9 8 9 8 8 10 9 10 13 13 11 9 7 6 5 2 0 1 3 5 6 5 6 7 8 9 11 12 11 9 8 7
3 3 3 2 2 1 2 3 3 1 2 4 4 6 6 5 4 1 2 1 2 3 3 4 4 4 3 3 2 2 4 5 5 5 7 7 7 7 8 9 12 16 19 19 19 19 19 20 21 21 22 23 22 21 17 13 12 13 11 10 10 10 11 11 12 11 10 8 6 5 4 4 4 4 4 4 5 6 8 10 13 13 12 11 10 8
1 1 2 2 2 2 2 3 3 1 3 3 2 5 6 4 2 3 0 2 2 2 3 4 3 3 2 3 4 4 5 6 6 6 6 7 7 9 11 12 12 14 18 20 21 21 20 19 20 20 22 24 24 24 23 20 17 16 14 14 14 14 14 13 12 12 12 11 11 10 9 9 8 7 5 5 5 6 8 10 13 14 13 12 11 10
2 1 1 1 1 1 3 3 2 2 3 4 4 3 2 3 3 3 2 2 2 1 2 3 4 4 2 3 5 6 5 6 6 6 6 7 7 8 11 14 14 15 17 19 22 24 22 18 17 18 19 22 22 23 24 22 21 19 18 18 18 18 17 16 14 12 13 14 14 13 12 11 10 9 8 8 9 10 11 11 12 14 15 14 13 12
2 1 2 2 3 3 3 2 3 3 4 5 6 5 4 3 2 3 4 3 3 3 2 3 4 5 4 3 4 5 5 6 7 7 7 7 7 8 11 14 15 15 16 18 20 22 22 21 20 18 18 19 19 19 19 18 18 17 17 16 15 16 17 17 15 14 14 15 15 14 14 13 12 12 13 13 13 14 14 13 13 15 17 17 16 14
3 2 2 3 4 5 5 3 2 4 4 4 4 4 4 3 2 3 4 3 3 3 3 3 3 5 4 3 4 4 5 6 7 7 7 7 7 9 12 15 16 16 16 17 18 19 21 22 21 20 19 20 18 17 16 16 17 16 15 12 10 9 10 11 11 11 12 13 14 14 14 14 14 15 16 16 17 17 16 15 14 15 16 17 18 17
4 3 4 3 2 3 4 3 2 2 4 4 4 4 3 3 3 3 3 2 1 1 2 3 3 4 4 4 5 5 6 7 7 7 7 6 7 9 11 13 16 17 17 17 18 19 20 20 20 21 21 21 20 18 17 19 19 19 18 16 13 11 9 8 7 6 6 7 9 11 11 13 14 15 17 18 19 19 19 18 17 16 15 16 17 17
2 2 3 3 2 3 4 2 3 2 4 4 4 3 2 3 3 3 2 1 0 1 1 2 2 2 3 4 5 5 5 6 6 6 7 6 6 9 11 14 16 18 18 17 17 17 17 18 19 20 20 20 20 20 19 19 20 21 19 18 16 14 13 12 11 10 9 7 6 6 7 8 10 12 16 19 19 19 18 17 17 17 16 17 18 18
2 3 1 1 3 3 1 2 3 1 2 2 5 3 2 3 3 3 3 2 2 2 3 4 4 4 5 5 5 4 5 6 6 7 7 7 7 9 12 16 17 18 18 19 19 19 18 18 18 19 20 21 21 21 20 19 20 20 20 19 17 15 15 15 15 14 14 13 12 11 9 9 9 10 13 15 15 14 13 13 15 16 16 16 18 18
3 2 1 2 3 1 2 3 1 1 1 4 5 5 4 3 4 4 4 4 4 4 4 5 6 8 9 9 9 7 5 5 7 9 8 7 9 11 14 17 19 19 20 22 23 23 22 21 21 20 21 23 23 22 21 22 23 23 22 22 20 17 15 15 16 16 15 14 14 14 13 11 11 11 12 14 13 11 11 12 14 15 16 17 16 15
3 3 2 3 3 3 5 5 3 3 2 4 4 4 4 4 5 5 5 5 5 5 5 5 6 6 7 9 10 9 6 6 10 11 9 9 13 16 17 18 19 20 22 23 23 23 23 23 23 22 22 22 22 21 21 23 23 24 24 24 22 20 18 17 17 17 17 16 15 15 13 13 13 13 14 15 15 15 15 15 15 15 16 16 15 14
Wind_Direction
133 164 262 221 223 229 228 206 205 227 228 237 237 203 238 259 289 289 288 277 159 140 197 199 165 170 214 185 125 143 154 145 144 146 154 160 167 170 172 174 174 186 204 195 178 174 172 172 169 169 163 149 145 147 148 151 152 153 153 152 151 154 157 155 154 155 157 165 169 170 169 160 148 143 142 139 139 135 128 128 134 164 193 218 217 216
102 178 241 231 220 219 228 221 211 226 235 239 152 18 312 326 288 293 305 330 79 114 212 145 114 153 234 235 139 130 135 171 160 155 163 169 177 179 173 172 174 181 183 172 183 185 179 175 172 171 162 149 146 148 151 152 152 153 154 154 154 157 159 161 162 164 164 166 165 165 168 164 154 151 148 143 142 140 135 132 131 140 163 238 221 216
50 233 242 237 224 216 250 253 216 211 201 212 79 51 310 293 294 301 313 348 27 91 12 158 134 188 231 245 193 160 165 188 179 167 170 173 175 179 174 168 170 170 161 170 185 193 187 175 168 170 162 152 151 152 154 154 154 155 156 157 159 160 164 167 167 167 165 162 162 162 161 160 155 153 153 149 148 149 147 145 149 162 169 202 225 227
231 244 241 237 206 163 257 254 184 180 60 105 357 58 284 278 328 302 311 342 12 84 146 152 131 242 267 304 243 194 173 174 185 181 175 175 174 177 177 169 169 171 169 176 182 190 182 168 168 171 163 156 155 154 155 156 157 160 161 162 165 166 170 172 170 170 167 160 158 156 156 155 151 150 152 150 150 153 156 156 159 168 170 173 202 213
240 253 258 253 194 165 206 232 155 99 357 294 226 193 224 203 187 245 299 339 352 10 78 84 31 321 334 23 304 286 174 158 180 185 188 201 188 174 173 171 174 173 170 174 177 183 178 168 171 171 165 160 158 158 159 161 163 165 167 169 170 171 174 176 174 175 175 163 153 148 147 147 143 145 150 151 152 152 152 156 159 164 163 151 143 167
250 254 262 265 210 169 175 216 189 133 43 314 256 213 210 179 201 255 304 12 25 349 332 79 44 297 322 352 283 324 131 175 189 186 195 206 192 175 176 177 180 173 170 176 175 178 180 171 168 169 167 163 163 164 165 166 169 172 173 173 173 174 177 180 182 184 181 167 157 151 149 146 142 143 149 155 157 156 153 151 150 150 152 147 134 136
254 243 210 188 169 144 148 190 208 149 115 314 250 208 201 167 174 245 259 89 89 274 280 88 125 254 317 321 285 335 131 183 206 211 210 199 183 190 190 184 182 172 167 175 175 176 179 171 165 169 172 170 169 169 169 171 173 176 177 175 176 178 180 183 184 185 179 168 163 161 160 158 152 149 153 157 155 153 151 147 146 144 144 149 144 131
268 275 167 163 146 138 144 190 212 145 120 231 242 198 186 144 130 164 150 140 208 240 314 11 102 151 300 290 280 326 96 172 198 212 224 204 193 194 195 192 184 171 165 171 180 182 181 177 172 174 177 175 173 172 172 174 176 179 179 177 179 181 180 178 176 176 175 168 165 165 165 164 161 156 154 156 154 152 151 148 146 143 140 143 146 139
276 263 194 180 147 156 185 213 204 140 133 241 237 209 218 169 147 136 109 114 283 352 323 321 56 98 270 281 311 352 37 278 213 211 214 203 197 194 194 194 184 176 174 174 179 180 182 185 180 178 179 177 176 176 178 179 180 182 180 178 180 181 177 173 171 171 170 167 165 166 167 165 164 161 157 158 158 157 157 151 148 148 144 143 144 142
251 217 199 160 133 193 217 220 185 143 192 248 231 232 266 209 128 103 94 103 43 45 260 277 345 104 268 287 321 360 39 290 247 230 234 201 190 192 192 188 179 174 173 174 178 179 183 189 187 181 177 177 179 181 182 182 182 182 180 179 181 181 176 172 170 168 166 164 166 169 169 166 165 163 161 161 160 160 161 155 152 154 153 151 149 144
270 240 192 150 165 194 198 212 191 168 200 251 316 306 331 359 23 56 71 88 66 4 254 259 189 121 294 286 274 276 249 265 231 117 296 194 171 176 176 170 164 155 160 167 162 151 159 176 182 177 173 176 180 181 181 181 182 181 181 180 180 179 175 172 170 169 167 166 171 173 171 168 166 165 164 164 164 165 165 160 156 154 151 149 149 148
326 315 221 223 192 150 115 282 290 191 151 63 48 75 60 347 3 25 360 43 88 257 263 261 163 108 128 264 259 270 287 289 219 142 171 158 143 144 140 138 136 134 137 134 124 117 129 145 156 162 167 175 178 178 179 181 182 181 180 179 175 172 172 170 171 173 171 170 176 177 173 170 168 168 167 166 167 170 168 162 157 153 149 146 146 149
334 273 260 292 236 127 102 359 321 352 43 75 91 81 89 345 10 20 316 356 157 241 251 255 307 93 220 244 254 280 299 297 238 150 148 129 125 123 119 120 118 118 115 107 111 117 124 134 151 161 167 176 180 180 180 180 179 177 177 175 168 167 174 176 178 179 174 174 176 175 174 173 171 172 172 171 171 173 171 166 162 158 155 152 151 152
321 306 307 329 310 138 122 137 271 313 33 117 156 120 114 120 67 302 271 312 261 267 267 263 285 358 289 270 236 257 292 289 122 118 119 113 113 110 105 111 112 106 104 102 105 106 108 122 150 168 174 178 181 180 178 176 173 171 171 171 167 168 177 178 178 179 175 174 173 173 176 176 175 176 178 177 176 177 178 175 170 166 162 159 157 156
142 320 289 198 263 219 151 166 178 167 139 182 171 139 137 147 143 199 220 189 228 272 298 313 9 157 221 262 240 257 311 74 101 94 95 94 94 96 91 88 92 85 83 86 83 86 96 106 114 141 168 178 180 176 175 173 172 173 171 168 162 158 163 167 170 178 181 177 173 174 179 180 181 183 184 183 181 182 186 183 177 172 166 161 160 159
149 250 258 244 227 179 165 187 158 115 62 261 132 99 156 183 152 160 183 174 174 148 312 309 268 204 201 259 290 26 45 95 104 104 104 99 92 92 87 80 84 76 68 73 74 77 78 87 93 103 130 160 173 174 175 177 179 177 169 165 168 170 175 180 183 187 189 183 176 174 179 183 186 187 188 187 184 187 190 185 181 177 170 163 161 161
130 250 278 324 355 171 187 203 163 121 152 277 33 82 236 177 129 119 229 195 100 100 280 269 251 298 325 309 343 53 85 104 108 115 114 114 113 106 106 107 102 93 83 78 82 88 85 90 99 106 119 141 162 170 176 182 188 185 177 178 185 187 187 188 188 189 188 184 177 175 181 188 193 193 192 191 188 191 194 189 184 180 173 168 166 166
134 256 290 6 22 318 299 235 134 124 133 111 87 215 215 63 85 106 124 354 52 110 272 269 183 322 13 302 335 23 21 37 104 122 123 122 123 120 126 133 125 119 113 107 102 103 105 105 106 111 122 142 160 171 179 186 193 194 192 194 193 188 184 184 187 187 186 184 180 178 183 191 198 199 196 195 195 195 196 192 189 184 177 172 169 170
119 96 294 342 28 316 335 38 18 332 36 123 175 179 96 85 352 67 115 147 105 157 274 292 106 33 100 255 323 355 328 298 116 130 132 133 135 135 140 140 132 124 114 108 101 96 96 91 91 102 120 144 161 174 183 188 193 198 198 199 196 191 187 185 186 185 185 188 185 184 188 193 202 205 200 198 198 198 199 196 193 189 183 177 172 171
102 111 272 303 345 337 350 40 40 321 335 24 69 29 53 135 156 162 143 150 147 159 243 297 22 317 234 278 318 313 297 254 179 127 99 107 118 125 134 129 118 112 103 99 95 88 85 82 85 104 129 150 165 178 187 189 194 198 198 198 196 192 187 185 187 185 185 189 188 188 194 198 205 210 205 200 198 199 202 201 197 195 190 183 179 175
56 96 203 292 333 36 9 10 53 345 333 353 355 349 351 83 98 128 112 93 123 135 174 141 36 287 261 263 284 291 338 104 129 104 74 82 95 97 115 119 112 111 109 105 101 96 91 88 89 104 130 153 167 183 192 196 201 200 196 196 195 191 187 184 185 184 186 190 190 192 198 202 207 211 207 202 201 201 204 205 202 199 195 190 187 183
75 113 156 293 343 47 232 266 351 338 264 181 302 306 151 132 110 107 12 315 106 127 157 146 141 270 267 259 268 269 116 110 113 108 106 121 128 123 126 131 129 122 118 112 105 102 100 98 97 102 118 139 157 180 195 200 201 196 190 192 194 195 192 189 188 188 190 196 198 198 201 205 212 215 209 204 203 203 205 208 206 203 199 194 193 191
124 104 101 117 238 238 249 250 29 16 41 92 61 28 82 105 105 121 178 253 65 84 147 114 111 264 263 263 270 283 80 74 88 111 121 120 116 113 111 114 111 106 104 102 99 101 106 108 106 104 107 120 137 161 185 194 195 194 191 190 194 197 199 199 196 194 198 206 207 206 208 211 218 222 215 208 206 206 207 209 208 205 202 198 195 195
68 81 64 337 287 304 311 334 43 32 44 56 16 10 48 25 70 138 170 178 119 118 159 103 97 260 274 284 268 126 93 72 64 87 102 94 64 56 61 62 74 86 88 90 93 101 110 110 109 107 106 111 122 139 159 175 185 191 192 193 198 201 201 201 198 198 213 221 216 212 214 213 213 224 229 216 208 206 207 208 208 206 204 201 198 197
37 98 84 51 1 343 347 355 2 6 24 42 328 356 32 26 28 59 55 66 87 170 149 123 169 233 261 298 319 87 91 84 76 78 88 92 83 66 55 45 53 86 97 95 98 105 111 114 113 114 115 116 119 127 139 151 162 171 180 189 195 194 191 187 185 187 196 210 214 214 211 202 198 205 220 218 207 206 205 204 205 205 205 203 200 199
107 124 107 105 124 238 309 294 294 331 346 335 341 2 20 33 41 53 48 60 84 210 94 117 175 231 290 349 32 60 84 90 90 96 98 101 109 105 98 83 57 72 103 111 117 118 117 120 123 124 126 125 124 126 130 137 144 149 156 166 175 180 179 176 180 184 185 188 197 200 195 186 181 189 197 195 193 194 194 196 201 204 203 203 200 199
90 80 103 126 149 179 190 215 241 15 22 334 333 353 4 23 50 83 87 88 150 112 37 209 169 125 350 359 16 16 57 96 100 100 97 94 103 110 122 123 114 121 135 134 132 130 128 130 131 132 131 131 129 129 131 133 135 138 140 143 155 167 169 175 188 194 191 187 176 162 169 174 171 170 175 176 177 181 184 185 192 199 196 195 197 198
85 47 97 120 142 183 182 211 315 37 43 345 335 346 355 17 53 78 87 164 165 105 355 290 93 80 358 353 18 4 10 48 40 32 62 87 91 87 96 102 106 123 143 143 143 147 146 143 142 138 136 136 134 133 133 132 131 132 134 136 146 158 162 172 188 194 190 187 183 167 158 164 171 173 175 178 181 183 183 182 186 193 193 190 193 196
101 140 195 118 99 102 94 45 34 54 51 26 15 356 347 36 80 90 95 187 140 120 183 220 93 87 357 352 21 14 15 40 37 22 43 74 68 55 57 57 49 35 36 148 157 158 158 159 159 152 147 144 140 135 133 132 131 130 130 133 141 149 158 168 178 187 193 195 197 199 191 178 178 195 215 216 204 201 206 203 197 198 203 207 211 211
100 164 205 102 79 32 35 47 50 53 48 37 26 7 2 66 88 89 72 63 89 105 145 128 93 76 20 348 351 350 5 36 46 37 42 51 49 51 50 40 33 30 15 323 188 157 157 159 159 154 150 147 146 143 139 135 134 133 131 134 138 140 146 158 167 178 190 196 204 219 223 216 210 219 229 230 217 211 216 216 208 206 211 215 220 222
77 162 230 87 71 350 358 48 53 61 74 57 23 4 8 41 52 47 27 34 70 87 91 89 80 52 355 344 355 7 19 37 41 36 39 42 45 56 52 29 17 14 1 3 13 11 45 125 143 148 149 150 149 147 145 143 141 137 135 134 138 142 145 149 154 162 169 172 177 190 202 208 209 211 215 213 203 199 203 206 206 210 215 218 220 224
71 110 14 67 76 301 322 53 48 62 76 57 22 359 357 28 61 52 23 20 68 118 87 66 70 24 320 335 28 44 48 52 43 26 23 26 29 46 49 34 27 20 18 40 45 33 21 17 42 102 132 149 156 154 151 152 152 148 145 141 134 136 145 147 148 150 153 156 161 164 169 176 183 186 186 180 174 176 180 187 194 202 211 217 221 228
98 104 81 88 98 283 299 64 64 58 54 24 342 335 335 52 88 66 35 21 25 94 101 82 98 265 303 343 46 51 51 56 50 33 28 27 23 32 34 29 30 33 42 49 49 46 33 15 16 28 45 100 154 164 161 158 157 156 159 160 150 143 146 148 147 148 146 146 152 161 166 167 166 170 174 172 172 176 175 180 191 203 215 222 226 237
81 101 131 127 113 256 288 37 60 50 45 257 273 308 3 102 90 76 49 21 19 41 79 99 104 357 348 26 51 56 62 64 55 47 49 44 35 32 30 30 31 33 41 45 46 48 35 21 20 20 18 19 34 151 166 166 161 160 167 175 173 173 182 182 179 183 187 179 163 156 163 170 169 169 170 167 170 177 180 186 200 211 224 234 239 247
129 120 141 110 114 180 303 47 59 275 214 198 248 355 102 109 98 89 69 34 27 39 55 61 36 1 15 43 35 39 101 92 70 56 50 46 42 37 28 23 24 31 39 36 33 36 29 19 15 12 10 8 11 31 87 135 151 158 175 193 192 189 192 210 217 224 230 213 186 166 164 172 172 169 168 169 174 181 188 198 206 211 223 236 240 246
144 145 152 136 123 143 94 82 139 222 210 142 357 6 80 89 85 81 61 26 12 21 41 48 22 355 7 29 18 346 224 112 74 57 48 43 42 42 36 22 8 12 35 43 40 40 31 15 4 358 359 1 2 9 20 28 51 96 125 185 205 207 202 220 237 232 220 196 176 171 177 182 178 174 173 179 189 196 205 212 216 222 229 235 238 248
143 141 150 177 175 138 141 153 167 191 153 16 334 318 112 80 275 111 94 36 348 1 33 47 23 360 355 7 12 349 315 29 46 30 21 36 42 35 34 33 18 7 7 20 32 38 35 17 1 347 345 348 345 347 354 359 3 18 49 82 127 162 144 154 234 241 234 223 209 198 194 191 186 184 186 188 192 196 207 220 231 243 247 248 249 254
138 163 172 187 201 104 114 136 134 171 207 233 265 267 255 244 225 149 115 70 325 333 8 53 32 2 350 349 350 355 19 46 31 347 334 360 30 37 28 27 28 23 16 11 13 11 4 1 357 341 333 326 322 325 334 339 342 346 357 21 49 50 55 67 52 27 21 228 232 227 215 207 201 195 191 188 187 192 202 211 224 243 252 253 258 265
52 85 132 142 156 107 116 144 168 180 212 234 256 282 301 299 246 104 89 40 313 317 329 25 35 15 360 351 349 17 51 42 344 298 302 323 350 21 21 12 15 15 11 5 1 356 353 352 346 332 324 305 297 300 307 317 325 326 326 330 339 341 347 10 17 15 41 67 29 287 223 210 206 201 196 190 189 193 202 212 227 241 247 248 254 267
29 25 62 99 130 138 124 126 148 159 208 251 266 285 296 308 41 81 98 258 302 339 343 27 47 30 18 15 17 44 60 25 304 286 282 290 331 2 359 352 354 355 354 352 349 346 345 345 343 336 327 318 314 308 284 276 282 286 296 306 311 311 308 310 320 336 356 10 6 13 79 198 201 200 197 192 193 200 211 226 237 240 242 245 251 262
12 10 49 99 109 109 108 105 109 130 280 279 286 298 307 355 57 88 186 234 321 17 16 52 60 41 34 39 37 42 15 282 270 281 297 310 338 349 345 341 337 336 337 338 336 337 336 334 333 330 325 325 329 328 313 287 284 289 295 294 289 285 283 283 286 292 293 294 296 292 283 191 205 207 207 211 226 240 244 242 239 239 243 246 250 262
7 2 17 54 37 22 99 114 108 82 281 255 271 325 357 55 86 144 206 110 69 52 39 51 48 31 36 46 26 307 287 291 297 312 328 338 341 336 337 341 337 333 335 336 335 335 334 328 324 321 319 318 319 318 315 308 303 305 303 289 281 284 284 281 282 284 281 273 261 250 250 264 270 261 261 280 294 292 283 266 249 245 248 248 250 263
15 15 16 7 346 16 62 79 97 84 310 289 314 1 21 70 149 220 229 48 49 54 41 30 10 1 11 356 329 307 300 309 319 326 331 332 331 330 332 334 335 332 333 334 332 331 331 327 320 317 317 319 319 317 311 303 296 297 294 284 283 290 290 285 280 278 276 273 270 266 260 262 268 265 261 277 290 298 301 285 261 251 251 250 255 269
14 54 92 340 325 39 54 53 81 75 11 29 74 85 85 123 175 188 127 31 350 12 36 10 342 332 335 333 323 317 316 319 318 318 323 323 321 321 320 320 322 323 322 321 320 320 321 318 313 312 315 318 320 321 318 308 296 289 285 283 288 292 288 283 278 273 270 270 271 266 255 250 252 249 248 262 278 284 288 283 267 257 255 255 259 265
334 256 141 86 71 86 92 82 89 86 56 57 83 112 134 138 150 133 106 60 354 344 15 14 345 328 325 334 326 318 312 313 313 310 309 307 304 302 303 302 301 300 303 305 307 309 309 306 304 304 306 309 312 316 321 321 314 304 295 293 295 294 286 279 273 267 264 263 260 256 251 248 247 247 253 266 279 283 280 274 266 260 256 253 253 254
320 324 76 92 104 97 72 41 56 92 82 69 88 116 124 118 87 72 80 65 357 346 1 13 339 316 319 342 339 324 308 304 305 303 300 298 296 295 296 296 295 296 297 298 301 305 304 301 300 300 301 303 304 301 301 307 311 312 312 313 314 311 299 287 276 268 262 256 248 243 244 246 247 250 256 264 270 272 271 271 272 271 263 252 246 244
329 7 56 76 110 104 77 4 330 94 91 72 78 100 91 69 54 64 78 75 359 2 3 357 338 318 327 342 331 313 306 308 308 307 305 305 303 301 300 299 300 302 301 299 302 304 301 295 292 294 295 296 296 294 293 293 293 295 299 300 302 306 306 302 299 294 278 256 244 242 245 249 251 252 254 257 259 261 264 266 267 267 261 247 235 228
323 27 62 54 43 103 138 237 279 190 149 102 79 79 56 50 46 46 59 83 36 9 329 329 334 315 314 318 307 297 306 315 318 321 322 318 311 310 311 310 309 310 311 312 313 311 305 296 291 289 289 289 291 294 295 292 288 287 287 288 289 290 288 288 289 289 286 280 271 264 261 261 261 259 257 256 256 258 262 261 256 253 250 241 229 217
2 39 74 78 48 56 88 322 333 268 193 52 44 36 32 68 70 40 27 33 21 352 328 328 343 348 345 342 337 338 342 339 337 337 332 324 319 320 323 324 323 322 322 323 323 320 313 304 297 292 288 287 289 291 289 286 283 282 280 281 282 280 277 276 277 276 275 274 272 274 275 273 269 261 252 247 245 246 247 241 235 234 232 226 222 218
52 54 25 73 68 37 283 289 342 107 252 310 350 7 15 49 56 29 9 5 355 345 346 358 8 15 21 25 24 17 1 342 336 333 326 318 317 320 322 322 320 317 316 316 314 312 308 303 299 295 291 290 291 289 282 277 277 276 276 277 278 276 271 269 269 267 266 264 263 265 266 261 257 250 239 231 226 221 214 210 209 208 205 203 206 213
108 149 150 121 140 209 225 222 188 138 200 279 323 2 7 26 36 17 358 354 353 360 26 44 38 27 21 19 17 11 351 327 327 327 319 313 313 315 314 313 310 308 309 308 306 302 300 299 298 297 295 295 298 296 290 285 281 277 274 273 271 270 270 267 263 258 256 256 257 257 251 244 244 243 234 222 214 207 199 193 192 195 197 199 201 204
Height
752 761 766 765 763 761 760 762 762 761 763 764 766 765 764 767 763 751 742 730 726 740 746 742 746 747 744 747 750 751 753 754 757 760 762 762 763 763 764 764 765 767 766 766 768 769 771 773 775 779 782 782 782 784 785 788 791 793 795 796 798 800 802 803 804 806 807 808 809 810 811 812 813 814 814 815 816 816 816 817 818 820 821 822 822 823
754 766 766 758 756 754 754 758 761 762 763 761 763 762 761 765 759 746 741 734 727 737 747 744 746 749 743 744 749 751 757 759 757 759 762 761 761 761 760 762 763 765 766 768 770 770 771 773 776 779 781 781 782 784 785 788 790 792 793 795 797 800 802 804 805 806 807 807 808 809 810 811 812 813 814 815 815 816 816 817 819 820 822 823 823 823
764 767 759 750 752 756 755 757 761 761 757 757 760 762 763 762 755 745 739 736 732 736 747 747 746 750 746 744 747 748 751 754 752 751 754 757 760 761 761 761 762 764 767 768 770 771 771 774 776 778 780 780 781 783 785 787 789 791 793 795 798 800 802 804 806 807 807 808 808 808 810 810 811 813 814 814 814 815 816 817 819 821 822 823 823 824
771 761 748 746 753 759 759 758 759 758 753 755 759 762 765 761 757 754 743 737 737 739 745 747 744 748 750 748 748 747 746 749 750 750 750 752 754 755 755 756 758 761 765 767 769 770 771 774 775 777 779 779 781 783 784 786 788 790 793 795 798 800 802 804 805 807 807 807 808 809 811 811 812 813 814 814 815 816 817 818 819 820 822 822 823 824
765 751 742 746 752 758 759 758 756 755 756 757 756 759 763 759 756 755 748 741 740 741 741 745 751 749 747 749 749 748 748 750 752 753 754 754 751 751 753 753 754 755 758 763 766 768 769 771 773 775 777 779 780 782 783 785 787 790 793 795 797 800 801 803 804 805 806 806 808 809 811 813 813 814 814 814 815 817 818 819 820 821 821 822 823 824
759 746 743 747 751 754 755 754 753 753 759 760 754 752 755 756 755 753 752 751 753 756 747 749 767 764 748 747 749 749 751 753 753 753 754 754 753 754 755 754 753 753 756 759 761 764 766 768 771 774 776 778 779 781 783 784 786 789 793 795 797 799 801 802 803 804 805 805 806 808 811 812 813 814 815 815 816 817 819 820 821 821 821 822 823 824
750 742 743 747 749 750 751 751 750 751 761 765 753 746 749 753 755 755 754 757 764 767 754 750 769 774 758 747 745 750 753 753 755 755 754 754 755 755 755 754 753 753 756 759 761 763 764 767 770 772 774 776 778 780 782 784 786 789 792 795 797 799 800 801 802 803 803 804 806 808 810 812 813 815 816 818 818 819 819 820 821 821 821 822 823 824
744 743 744 745 745 748 750 751 749 748 758 762 747 742 748 750 754 756 755 759 762 761 757 753 759 772 770 753 746 751 752 751 754 754 754 754 754 753 753 753 753 752 754 757 760 762 763 765 767 770 773 775 777 779 782 784 786 788 791 794 797 798 800 801 802 802 802 803 805 808 811 813 815 816 818 820 820 820 820 820 821 821 822 822 823 824
743 746 745 742 745 749 748 746 744 745 752 750 740 741 745 746 750 752 753 759 761 763 768 764 760 774 778 758 749 752 750 750 751 748 748 750 751 752 751 752 752 751 751 753 757 760 762 764 766 769 772 774 777 779 780 782 784 787 790 793 796 798 799 800 801 802 803 804 805 809 812 814 817 818 820 821 821 821 820 820 821 822 822 822 823 824
742 740 737 739 745 746 743 739 738 743 747 741 738 743 742 743 748 749 753 757 761 771 776 769 765 776 781 762 752 754 751 749 747 745 747 747 749 750 750 752 752 752 753 754 756 759 762 764 766 769 772 774 776 778 780 782 784 786 789 792 794 796 798 800 801 802 804 804 806 809 811 814 817 820 821 822 822 822 821 821 821 822 822 823 823 824
739 734 733 735 738 737 736 735 736 739 741 738 740 745 746 748 747 750 758 758 768 782 776 769 767 772 782 769 754 754 751 745 742 745 748 746 748 751 751 752 753 753 755 756 758 761 764 766 768 771 773 775 777 779 781 782 784 786 788 790 793 795 797 799 801 802 803 804 805 808 811 813 816 819 821 822 822 822 821 821 821 822 822 823 824 825
739 736 736 730 728 730 733 736 737 736 737 740 746 749 754 760 756 760 767 766 780 790 776 770 768 770 782 772 754 751 748 744 743 745 748 748 749 752 752 753 754 755 755 756 760 763 766 768 770 772 774 776 778 780 781 782 783 785 787 789 792 795 797 799 802 803 802 803 804 807 810 813 815 818 820 821 821 821 821 821 821 821 822 823 824 825
742 738 736 730 726 728 734 742 742 738 738 744 751 754 764 776 777 780 782 781 787 786 775 772 769 771 779 766 752 750 746 744 745 745 747 748 749 752 753 754 755 755 757 758 761 764 766 768 770 771 773 775 777 779 780 781 783 785 787 790 792 794 796 796 799 802 801 801 803 806 810 813 815 818 819 820 821 821 821 821 821 821 821 822 823 825
751 743 736 734 732 727 732 744 749 746 744 747 752 757 767 781 792 796 795 794 792 781 775 774 770 775 778 762 751 751 748 746 746 747 748 747 750 753 754 755 756 757 758 760 762 764 767 768 769 770 772 774 776 778 781 782 785 787 789 790 791 792 793 793 797 802 802 801 803 806 810 813 815 817 818 820 820 821 822 821 821 820 821 822 823 824
762 758 742 737 736 730 730 737 741 742 743 745 747 752 760 769 782 791 791 791 791 783 777 774 772 778 776 760 750 748 748 749 749 750 750 750 752 754 756 759 760 761 761 762 763 765 767 769 769 770 772 773 776 778 781 783 785 786 787 789 791 792 795 798 801 804 803 802 802 804 809 813 815 816 817 819 820 821 822 822 821 821 820 821 822 824
762 760 741 733 732 728 731 731 730 738 746 746 746 751 757 755 761 776 783 782 783 785 782 776 774 773 765 754 749 749 750 752 752 754 754 755 757 758 760 764 764 765 765 764 765 767 768 769 769 770 771 773 775 777 779 781 782 783 785 787 789 790 793 796 798 798 799 800 800 802 806 811 814 816 817 818 820 821 821 822 821 821 820 821 822 823
760 757 739 733 732 728 730 729 727 736 746 747 750 753 752 747 750 767 783 783 781 788 787 780 776 770 764 758 753 753 755 756 757 758 760 762 762 763 766 768 768 769 769 769 769 770 771 772 772 773 772 773 774 775 777 778 779 780 782 783 785 786 789 790 791 792 796 798 799 801 805 809 813 815 815 817 818 819 820 821 821 820 820 820 821 822
754 755 744 738 739 733 727 728 727 728 734 745 753 749 745 749 751 760 778 787 790 795 789 780 778 778 779 775 763 759 761 762 762 762 764 766 766 768 770 771 771 771 772 773 773 773 774 774 775 774 773 773 773 774 775 776 777 778 779 781 781 783 785 788 790 792 795 798 798 800 803 806 809 812 814 815 816 818 819 820 820 820 819 819 820 821
746 756 752 741 742 737 727 731 737 733 729 736 742 739 744 758 763 764 776 786 794 798 790 782 784 785 785 781 772 768 768 767 766 765 766 766 767 768 770 770 770 770 771 772 772 773 773 773 773 773 774 775 774 775 775 776 777 778 779 780 780 781 783 786 789 790 794 796 797 798 801 804 807 810 811 812 814 816 817 817 818 819 819 819 819 820
744 756 758 745 740 740 736 742 754 753 739 733 736 739 745 755 762 766 773 778 785 795 795 788 790 789 782 779 775 771 768 766 766 767 767 768 767 766 767 767 767 767 768 769 770 772 772 773 774 775 776 776 776 776 776 777 778 778 779 780 780 782 783 785 788 789 792 795 795 796 799 801 804 807 809 810 812 813 814 815 816 817 818 818 818 819
745 755 760 751 742 746 751 753 758 759 752 747 747 749 750 755 761 765 770 774 777 788 796 795 798 795 782 777 775 770 766 764 764 767 769 769 768 767 767 766 766 768 768 769 770 773 774 776 777 778 778 778 777 777 777 778 778 778 779 780 781 783 784 786 788 789 791 793 794 795 796 799 802 805 807 809 809 811 812 814 815 816 817 818 818 818
747 753 758 757 753 754 758 753 749 749 750 752 754 755 756 757 761 768 777 779 774 779 787 790 799 798 783 776 774 769 766 764 762 765 769 769 769 768 769 769 769 769 769 770 771 773 776 778 779 780 780 779 779 778 778 778 779 779 780 781 783 784 785 787 788 789 791 792 794 796 798 801 804 805 807 808 808 810 811 812 814 815 816 817 817 817
744 750 755 760 758 756 755 751 747 745 744 747 753 757 759 758 759 767 776 778 776 780 782 783 792 793 780 774 772 767 765 765 764 764 767 770 771 771 772 771 770 769 769 771 773 775 777 779 780 781 781 781 781 780 779 779 779 780 781 782 784 785 786 788 789 790 793 795 796 798 799 802 805 808 809 809 808 809 811 812 813 814 815 816 816 816
743 752 758 761 759 753 750 748 747 746 747 752 758 759 760 761 762 763 767 769 773 782 784 786 795 791 776 772 772 768 765 765 766 766 767 771 774 774 774 773 772 771 772 773 775 777 779 780 781 782 782 782 782 781 781 780 780 781 782 783 784 786 788 790 791 793 796 798 798 799 800 801 803 808 811 810 809 809 810 811 813 814 814 815 815 815
747 758 762 766 769 765 761 760 758 756 758 761 764 763 762 763 762 764 767 767 772 780 780 783 794 789 777 774 773 768 766 766 767 767 768 771 774 775 776 775 775 774 774 775 777 779 780 781 782 782 783 784 783 783 782 782 782 782 783 784 785 787 789 790 791 793 795 797 798 799 801 802 802 804 808 810 810 811 811 812 813 813 813 814 814 815
750 760 761 766 777 779 778 777 773 771 769 766 766 766 766 766 764 765 770 771 775 780 778 780 788 784 777 777 775 770 768 768 768 768 769 772 774 775 775 775 776 776 775 777 778 780 781 782 783 783 784 785 785 785 784 784 784 784 784 785 786 787 788 790 791 792 792 794 796 799 802 805 804 803 804 805 807 811 813 814 815 814 813 813 813 814
753 761 761 764 770 773 775 775 771 770 771 771 770 768 769 771 768 768 773 776 778 779 778 779 782 781 783 785 782 777 772 771 770 770 771 774 775 775 774 773 774 775 776 778 779 781 782 783 784 784 784 785 786 786 786 785 785 785 786 786 787 787 788 791 793 793 792 793 797 801 803 804 804 804 805 805 805 807 810 812 816 817 817 816 815 814
755 762 764 766 768 769 771 771 769 769 773 774 772 771 772 773 770 770 774 777 778 780 784 785 783 786 793 793 789 786 780 777 777 775 774 776 777 776 775 774 775 775 776 778 780 781 782 783 784 784 785 786 786 787 787 787 787 787 787 787 788 788 789 790 792 792 793 794 797 801 802 801 802 805 808 808 807 807 807 809 813 817 819 820 819 817
757 763 764 766 770 771 770 769 770 772 774 776 778 778 775 771 771 774 776 777 776 779 788 791 789 793 797 795 792 790 787 784 783 782 779 778 778 778 777 777 778 779 780 780 780 780 781 782 783 784 785 785 786 787 787 788 788 788 788 789 789 789 789 790 791 792 793 795 797 801 801 800 801 803 806 808 807 807 808 809 810 813 816 818 819 819
758 765 765 766 770 772 769 770 772 773 775 780 785 786 781 777 777 778 780 782 780 784 792 794 794 798 799 798 795 792 791 789 787 786 784 783 783 782 780 780 779 779 781 783 782 781 780 780 782 783 784 785 786 786 787 787 788 789 789 790 790 790 790 790 791 792 793 795 797 799 799 799 799 800 803 806 807 807 807 808 808 809 812 813 815 816
758 767 767 766 772 775 772 772 775 776 778 783 789 790 785 783 785 785 787 788 786 792 798 793 794 801 803 802 800 797 795 793 791 791 791 790 789 786 784 784 782 781 782 783 785 785 784 783 782 783 783 784 786 786 787 788 788 789 789 790 791 791 791 792 792 793 794 795 797 798 798 799 799 801 804 806 806 806 805 806 807 808 810 811 812 812
759 767 769 769 776 780 775 774 776 777 778 783 790 795 792 790 794 798 801 798 794 796 797 793 798 807 807 805 804 801 800 799 798 798 796 795 794 791 790 790 789 787 786 785 787 789 790 790 788 786 786 786 786 787 788 788 788 789 789 790 791 791 792 793 793 794 795 796 798 799 799 800 801 803 805 805 805 805 806 806 807 808 809 809 810 810
761 765 770 773 778 782 779 776 776 776 781 788 796 801 800 799 801 806 810 809 804 801 800 801 808 812 811 808 806 805 805 804 804 803 801 800 798 796 796 796 795 793 791 791 792 793 794 795 793 791 791 790 789 789 788 788 788 789 790 790 791 791 792 793 793 794 795 796 797 798 799 801 801 802 803 804 804 805 805 806 806 807 808 808 809 809
763 764 770 774 777 783 784 778 777 784 792 799 801 801 802 803 805 812 818 818 813 809 808 811 813 813 812 811 808 808 808 808 807 806 804 803 802 800 800 799 798 798 796 795 795 795 796 797 795 794 794 793 793 791 790 790 789 789 790 791 792 792 792 792 793 793 794 794 796 797 798 799 800 801 802 803 803 804 804 805 806 806 807 808 808 808
765 765 771 775 777 784 786 783 787 795 799 802 804 803 804 806 807 813 820 821 818 816 815 816 816 813 813 814 811 810 810 810 809 807 806 806 805 803 802 800 799 800 799 798 797 796 797 797 796 795 795 795 794 793 793 792 791 790 791 791 792 792 792 792 793 793 793 794 795 796 797 798 799 800 801 802 803 803 804 805 805 806 807 807 807 807
764 766 770 775 779 786 789 787 792 799 801 803 806 804 804 807 804 805 816 822 821 819 818 817 817 815 812 813 813 810 810 810 809 809 809 809 807 806 805 804 801 800 800 800 798 798 799 798 797 797 797 797 795 794 794 794 793 792 791 791 792 792 793 793 793 793 794 794 794 795 797 798 799 800 801 802 802 803 804 804 805 805 806 806 806 806
761 764 767 773 779 785 788 790 795 802 806 808 809 806 805 806 802 802 815 824 822 819 820 817 816 815 812 810 812 811 809 808 809 810 811 810 809 808 808 807 805 803 802 800 800 800 800 799 798 798 799 798 797 795 795 795 795 794 792 792 792 792 793 794 793 793 793 793 794 795 796 797 798 799 800 801 802 802 803 804 804 805 805 805 805 805
760 762 764 770 778 783 787 791 797 802 806 809 810 806 802 805 803 800 811 823 821 818 820 817 815 816 813 810 811 810 808 808 812 815 812 810 810 809 808 808 807 806 804 803 802 801 801 799 799 799 799 799 798 797 796 796 796 794 793 793 792 793 793 793 794 794 793 793 794 794 795 796 797 798 799 800 801 802 803 803 804 805 805 805 805 805
764 767 767 769 777 782 783 787 793 800 807 812 811 804 799 803 802 798 809 824 823 818 819 818 816 818 817 815 813 811 811 815 819 817 813 811 810 808 808 808 808 807 806 805 804 803 802 801 801 800 799 798 798 798 797 797 796 795 794 793 792 792 792 793 793 794 793 793 793 794 794 795 796 797 798 799 800 801 801 802 803 804 804 804 805 805
768 773 773 773 777 780 781 789 801 810 813 812 808 803 802 801 798 799 813 825 823 819 821 821 820 821 820 818 817 815 817 820 820 816 813 812 810 808 807 807 806 806 806 805 804 804 802 802 801 800 800 799 798 798 798 798 797 796 795 793 792 792 792 793 793 793 793 793 793 794 794 795 796 797 797 798 798 799 800 801 802 802 803 803 804 804
779 780 781 781 783 782 785 798 814 818 814 810 807 805 802 797 798 809 822 825 822 822 823 821 821 822 821 820 820 819 819 820 818 815 813 812 810 809 808 807 806 805 804 804 804 803 802 801 800 800 799 798 798 798 798 798 797 796 795 794 793 793 792 792 792 792 792 793 793 794 795 795 796 797 797 797 798 798 799 799 800 801 802 802 802 802
794 793 791 791 792 790 790 801 817 821 815 809 808 806 800 802 812 822 826 823 822 823 822 821 821 822 821 821 821 821 819 817 816 814 812 810 810 809 808 807 806 805 803 803 803 803 802 801 800 799 798 797 796 796 796 796 796 795 794 793 792 792 792 791 790 790 791 792 792 793 794 794 795 796 796 796 796 796 797 798 798 799 800 800 801 800
804 803 804 805 803 800 800 808 821 827 818 808 808 810 811 816 824 826 823 822 823 822 821 821 821 820 820 820 819 818 817 816 815 813 812 811 810 808 807 807 806 805 803 802 801 801 802 801 800 799 797 796 795 794 793 793 793 792 792 792 791 791 790 790 789 789 789 789 790 791 792 793 793 794 794 795 795 795 796 797 798 798 799 799 799 799
805 805 809 811 808 808 815 821 825 825 819 811 813 819 822 823 824 822 821 822 822 821 820 820 820 820 820 819 818 817 816 815 814 813 812 811 809 808 807 806 805 804 803 802 800 799 799 799 799 798 797 795 794 792 791 791 790 789 789 789 789 789 788 788 788 787 787 787 788 788 789 790 791 792 793 793 794 794 795 796 797 798 798 798 798 798
807 803 805 810 812 815 821 824 822 820 820 818 818 821 823 823 822 821 821 821 821 821 821 821 820 820 819 819 818 817 816 814 813 812 811 810 808 807 806 804 803 803 802 801 800 798 797 796 795 795 794 794 793 792 790 789 788 787 786 786 786 786 785 785 785 785 785 786 786 786 787 787 788 789 790 791 792 793 794 795 796 797 797 797 797 797
805 801 801 808 814 816 819 822 820 820 822 821 820 821 822 821 821 821 820 821 822 821 821 821 820 819 819 818 818 816 816 815 813 811 810 809 807 806 804 802 801 800 800 799 798 797 796 794 792 791 790 790 791 790 789 788 787 786 785 785 785 784 783 783 783 783 783 783 784 784 785 785 786 787 788 789 790 791 792 793 794 794 795 796 796 796
804 801 802 806 810 813 820 824 821 820 822 821 820 821 821 821 821 821 820 821 821 820 820 820 819 819 818 817 817 816 815 813 812 811 809 808 806 804 803 801 799 798 798 797 795 795 794 792 790 789 787 786 786 787 787 786 785 784 784 783 783 783 782 782 781 781 781 781 782 782 783 784 784 785 786 787 788 789 790 791 792 792 793 794 794 795
806 804 805 808 810 814 822 825 821 820 822 821 820 821 821 821 821 821 821 821 820 820 820 819 818 818 817 816 816 815 814 813 812 811 810 808 806 804 802 800 798 797 796 794 794 793 791 790 788 787 785 784 783 783 783 782 782 781 781 781 781 781 780 780 780 780 780 780 780 780 781 781 782 783 783 784 785 786 787 788 789 790 791 791 792 793
807 807 810 812 814 819 824 823 819 819 819 819 820 821 821 821 821 821 821 820 819 819 819 817 817 817 816 816 816 815 814 814 812 811 810 808 806 804 802 800 798 796 795 794 792 791 790 788 786 785 783 781 781 780 779 778 778 777 777 777 778 778 778 777 778 778 778 778 778 778 779 779 779 780 781 781 782 783 784 786 787 787 788 789 790 791
809 812 814 813 815 822 825 822 820 820 819 819 821 821 820 820 819 819 819 818 818 818 818 817 817 817 816 816 816 815 815 814 812 811 810 807 805 804 802 800 798 796 794 792 791 789 787 786 784 783 780 779 778 777 776 775 774 774 773 773 774 774 774 774 774 774 775 775 775 776 776 777 777 778 778 779 780 781 782 784 785 786 787 788 789 791
812 814 816 815 817 821 822 821 820 821 821 821 821 820 820 819 818 818 818 818 818 818 817 817 818 817 817 817 816 815 815 813 811 810 808 806 804 802 800 799 797 794 792 791 789 787 785 783 782 780 778 776 775 774 773 772 770 770 770 770 770 770 770 770 770 771 771 772 772 773 773 774 775 775 776 777 778 779 780 782 784 785 786 787 788 790